Orange, MA

9:28 PM EST on December 15, 2019 (GMT -0500)
Orange Municipal

Weather History for KORE - October, 2019

Change the Weather History Date:

Saturday, October 12, 2019

  Actual Average Record
Temperature  
Mean Temperature 53 °F -  
Max Temperature 61 °F 59 °F 75 °F (2001)
Min Temperature 46 °F 36 °F 25 °F (1996)
Degree Days  
Heating Degree Days 12    
Growing Degree Days 3 (Base 50)    
Moisture  
Dew Point 46 °F    
Average Humidity 78    
Maximum Humidity 93    
Minimum Humidity 62    
Precipitation  
Precipitation 0.00 in - - ()
Sea Level Pressure  
Sea Level Pressure 30.00 in    
Wind  
Wind Speed 5 mph ()    
Max Wind Speed 10 mph    
Max Gust Speed -    
Visibility 8.8 miles    
Events      
Averages and records for this station are not official NWS values.
T = Trace of Precipitation, MM = Missing Value Source: Averaged Metar Reports

Daily Weather History Graph

Daily Weather History Graph

Search for Another Location

Airport or City:

Astronomy

Oct. 12, 2019 Rise Set
Actual Time 6:58 AM EDT 6:12 PM EDT
Civil Twilight 6:30 AM EDT 6:40 PM EDT
Nautical Twilight 5:57 AM EDT 7:13 PM EDT
Astronomical Twilight 5:24 AM EDT 7:45 PM EDT
Moon 6:09 PM EDT (10/12) 5:29 AM EDT (10/12)
Length of Visible Light 12h 10m
Length of Day
11h 13m
Waxing Gibbous, 99% of the Moon is Illuminated
Oct 12
Waxing Gibbous
Oct 13
Full
Oct 21
Last Quarter
Oct 27
New
Nov 4
First Quarter

Hourly Weather History & Observations

Time (EDT) Temp. Dew Point Humidity Pressure Visibility Wind Dir Wind Speed Gust Speed Precip Events Conditions
12:52 AM 53.1 °F 45.0 °F 74% 30.09 in 10.0 mi NNE 10.4 mph - N/A   Overcast
1:52 AM 52.0 °F 46.0 °F 80% 30.07 in 10.0 mi North 6.9 mph - N/A   Overcast
2:52 AM 53.1 °F 45.0 °F 74% 30.05 in 10.0 mi North 5.8 mph - N/A   Overcast
3:52 AM 53.1 °F 45.0 °F 74% 30.04 in 10.0 mi North 9.2 mph - N/A   Overcast
4:52 AM 52.0 °F 45.0 °F 77% 30.02 in 10.0 mi North 9.2 mph - N/A   Overcast
5:52 AM 52.0 °F 45.0 °F 77% 30.00 in 10.0 mi NNE 6.9 mph - N/A   Overcast
6:52 AM 52.0 °F 45.0 °F 77% 30.01 in 10.0 mi North 8.1 mph - N/A   Overcast
7:52 AM 52.0 °F 45.0 °F 77% 30.01 in 10.0 mi North 5.8 mph - N/A   Overcast
8:25 AM 53.1 °F 46.0 °F 77% 30.01 in 10.0 mi NNE 8.1 mph - N/A   Overcast
8:52 AM 53.1 °F 46.0 °F 77% 30.02 in 10.0 mi NNE 6.9 mph - N/A   Overcast
9:52 AM 54.0 °F 46.0 °F 75% 30.02 in 10.0 mi NNE 4.6 mph - N/A   Overcast
10:52 AM 55.9 °F 46.0 °F 69% 30.01 in 10.0 mi North 5.8 mph - N/A   Overcast
11:52 AM 57.0 °F 46.0 °F 67% 30.00 in 10.0 mi Variable 6.9 mph - N/A   Overcast
12:52 PM 57.9 °F 46.9 °F 67% 29.99 in 10.0 mi Calm Calm - N/A   Overcast
1:52 PM 59.0 °F 46.9 °F 64% 29.96 in 10.0 mi North - - N/A   Overcast
2:52 PM 60.1 °F 46.9 °F 62% 29.95 in 10.0 mi NNW 5.8 mph - N/A   Overcast
3:52 PM 59.0 °F 48.0 °F 67% 29.95 in 10.0 mi WNW 6.9 mph - N/A   Overcast
4:35 PM 60.1 °F 48.0 °F 64% 29.94 in 10.0 mi Calm Calm - N/A   Scattered Clouds
4:52 PM 60.1 °F 48.0 °F 64% 29.94 in 10.0 mi Calm Calm - N/A   Clear
5:52 PM 59.0 °F 48.0 °F 67% 29.95 in 10.0 mi South 3.5 mph - N/A   Clear
6:52 PM 52.0 °F 48.9 °F 89% 29.96 in 10.0 mi Calm Calm - N/A   Clear
7:52 PM 50.0 °F 48.0 °F 93% 29.97 in 10.0 mi Calm Calm - N/A   Clear
8:52 PM 48.9 °F 46.0 °F 90% 29.98 in 9.0 mi Calm Calm - N/A   Clear
9:52 PM 46.9 °F 45.0 °F 93% 29.99 in 10.0 mi Calm Calm - N/A   Clear
10:01 PM 46.9 °F 45.0 °F 93% 29.98 in 4.0 mi Calm Calm - N/A   Partly Cloudy
10:30 PM 46.9 °F 45.0 °F 93% 29.99 in 2.0 mi Calm Calm - N/A   Mostly Cloudy
10:39 PM 46.9 °F 45.0 °F 93% 29.99 in 4.0 mi Calm Calm - N/A   Mostly Cloudy
10:52 PM 46.9 °F 45.0 °F 93% 30.00 in 4.0 mi Calm Calm - N/A   Scattered Clouds
11:03 PM 46.9 °F 45.0 °F 93% 29.99 in 1.8 mi Calm Calm - N/A   Mostly Cloudy
11:52 PM 48.9 °F 46.0 °F 90% 29.99 in 10.0 mi Calm Calm - N/A   Overcast